Orbital Elements at Epoch 2459200.5 (2020-Dec-17.0) TDB
Reference: JPL 18 (heliocentric ecliptic J2000)
Element | Value | Uncertainty (1-sigma) | Units |
e | .05534458044732264 | 3.321e-08 | |
a | 2.131488935616755 | 1.1733e-08 | au |
q | 2.013522574746936 | 7.0401e-08 | au |
i | 5.555728633021548 | 6.5072e-06 | deg |
node | 20.52597464775367 | 4.9339e-05 | deg |
peri | 248.5284732278578 | 9.5777e-05 | deg |
M | 325.8150865156404 | 8.6271e-05 | deg |
tp | 2459308.433195507859 (2021-Apr-03.93319551) | 0.00027281 | TDB |
period | 1136.64030188658 3.11 | 9.3855e-06 2.57e-08 | d yr |
n | .316722888852768 | 2.6153e-09 | deg/d |
Q | 2.249455296486575 | 1.2383e-08 | au |
|
| | Orbit Determination Parameters
Additional Information
|